Regional Weather Roundup
Issued by NWS

Home | Current Version | Previous Version | Text Only | Print | Product List | Glossary On
Versions: 1 2 3 4 5 6 7 8 9 10 11 12 13 14 15 16 17 18 19 20 21 22 23 24 25 26 27 28 29 30 31 32 33 34 35 36 37 38 39 40 41 42 43 44 45 46 47 48 49 50
000
ASUS44 KBMX 231810
RWRAL

ALABAMA REGIONAL WEATHER ROUNDUP
NATIONAL WEATHER SERVICE BIRMINGHAM AL
100 PM CDT WED AUG 23 2017

NOTE: "FAIR" INDICATES FEW OR NO CLOUDS BELOW 12,000 FEET
WITH NO SIGNIFICANT WEATHER AND/OR OBSTRUCTIONS TO VISIBILITY.

THE REMARK "TC" DENOTES TEMPERATURE IN DEGREES CELSIUS.

ALZ001>011-014-016>018-020-231900-
NORTH ALABAMA

CITY           SKY/WX    TMP DP  RH WIND       PRES   REMARKS
MUSCLE SHOALS  PTSUNNY   83  67  58 N7        30.02F
6HR MIN TEMP:  72; 6HR MAX TEMP:  85;

HUNTSVILLE     NOT AVBL
DECATUR        NOT AVBL
HALEYVILLE     PTSUNNY   82  70  66 NE8       30.05F
6HR MIN TEMP:  70; 6HR MAX TEMP:  82;

GADSDEN        PTSUNNY   85  69  58 N7        29.99F
6HR MIN TEMP:  73; 6HR MAX TEMP:  87;

$$

ALZ012-013-022-023-030>036-040>044-231900-
WEST CENTRAL ALABAMA

CITY           SKY/WX    TMP DP  RH WIND       PRES   REMARKS
TUSCALOOSA     SUNNY     88  73  61 N10       29.98F HX  95
6HR MIN TEMP:  75; 6HR MAX TEMP:  88;

DEMOPOLIS        N/A     88  73  60 NW6       29.97F HX  95
6HR MIN TEMP:  75; 6HR MAX TEMP:  89;

$$

ALZ015-024>026-033>036-041>044-231900-
CENTRAL ALABAMA

CITY           SKY/WX    TMP DP  RH WIND       PRES   REMARKS
BIRMINGHAM     NOT AVBL
MONTGOMERY     MOSUNNY   94  72  48 NW8       29.94F HX 102
6HR MIN TEMP:  77; 6HR MAX TEMP:  94;

SHELBY CO ARPT NOT AVBL
MAXWELL AFB    DRIZZLE   91  77  62 W10       29.93F HX 105
6HR MIN TEMP:  76; 6HR MAX TEMP:  91; 6HR PCP: TRACE;

GREENVILLE     PTSUNNY   91  71  51 N7        29.96F HX  97
6HR MIN TEMP:  76; 6HR MAX TEMP:  92;

SELMA          FAIR      91  75  59 NW9       29.95F HX 102
PRATTVILLE     MOCLDY    91  75  58 CALM      29.95F HX 102
6HR MIN TEMP:  73; 6HR MAX TEMP:  92;

BESSEMER       FAIR      86  71  60 N7        30.01F HX  91
6HR MIN TEMP:  71; 6HR MAX TEMP:  86;

TALLADEGA      FAIR     N/A N/A N/A MISG      30.00F
PELL CITY      PTCLDY    86  72  62 VRB6      29.99F HX  92
MARION         FAIR      90  75  61 NW7       29.95F HX 100
6HR MIN TEMP:  75; 6HR MAX TEMP:  91;

SYLACAUGA      FAIR      89  74  60 CALM      29.98F HX  97
6HR MIN TEMP:  74; 6HR MAX TEMP:  89;

$$

ALZ019-021-028-029-037-038-045>048-231900-
EAST CENTRAL ALABAMA

CITY           SKY/WX    TMP DP  RH WIND       PRES   REMARKS
ANNISTON       NOT AVBL
ALEXANDER CITY   N/A    N/A N/A N/A MISG        N/A
AUBURN         MOSUNNY   89  73  59 W7        29.98F HX  97
6HR MIN TEMP:  76; 6HR MAX TEMP:  90;

$$

ALZ051>064-231900-
SOUTHWEST ALABAMA

CITY           SKY/WX    TMP DP  RH WIND       PRES   REMARKS
MOBILE         PTSUNNY   91  74  57 NE6       29.96F HX 100
6HR MIN TEMP:  74; 6HR MAX TEMP:  91;

BROOKLEY FIELD NOT AVBL
EVERGREEN      PTSUNNY   92  74  55 N7        29.96F HX 101
6HR MIN TEMP:  74; 6HR MAX TEMP:  92;

$$

ALZ049-050-065>069-231900-
SOUTHEAST ALABAMA

CITY           SKY/WX    TMP DP  RH WIND       PRES   REMARKS
DOTHAN         SUNNY     91  73  55 VRB5      29.99F HX 100
OZARK          DRIZZLE   91  70  49 N5        29.95F HX  97
6HR MIN TEMP:  74; 6HR MAX TEMP:  91;

TROY           MOSUNNY   93  73  52 NW6       29.96F HX 102
6HR MIN TEMP:  74; 6HR MAX TEMP:  93;

EUFAULA        FAIR      94  75  54 W6        29.94F HX 105
6HR MIN TEMP:  78; 6HR MAX TEMP:  95;

$$



USA.gov is the U.S. government's official web portal to all federal, state and local government web resources and services.